• In Deutschland
  • Länderverzeichnis
  • Für 7 Tage
  • Wassertemperatur
  • Satellitenkarten
  • Wetterkarte
  • Widgets
  • user-avatar
    Anmelden

    Stündliche Wetter Crailsheim

    Heute, 22 September, Samstag

    Zeit Temperatur Niederschläge Wind Luftdruck Luftfeuchtigkeit
    00:00 +10°C° 0 mm 3 m/S 727 mmHg 77%
    01:00 +10°C° 0 mm 3 m/S 727 mmHg 76%
    02:00 +9°C° 0 mm 3 m/S 728 mmHg 77%
    03:00 +9°C° 0 mm 3 m/S 728 mmHg 77%
    04:00 +8°C° 0 mm 3 m/S 728 mmHg 78%
    05:00 +8°C° 0 mm 3 m/S 729 mmHg 78%
    06:00 +8°C° 0 mm 3 m/S 729 mmHg 78%
    07:00 +8°C° 0 mm 3 m/S 729 mmHg 78%
    08:00 +10°C° 0 mm 3 m/S 729 mmHg 72%
    09:00 +11°C° 0 mm 4 m/S 729 mmHg 66%
    10:00 +13°C° 0 mm 4 m/S 729 mmHg 60%
    11:00 +14°C° 0 mm 4 m/S 729 mmHg 55%
    12:00 +15°C° 0 mm 4 m/S 729 mmHg 50%
    13:00 +17°C° 0 mm 4 m/S 729 mmHg 45%
    14:00 +17°C° 0 mm 4 m/S 728 mmHg 44%
    15:00 +17°C° 0 mm 4 m/S 728 mmHg 43%
    16:00 +17°C° 0 mm 4 m/S 727 mmHg 43%
    17:00 +16°C° 0 mm 3 m/S 727 mmHg 46%
    18:00 +15°C° 0 mm 2 m/S 727 mmHg 48%
    19:00 +14°C° 0 mm 2 m/S 727 mmHg 51%
    20:00 +14°C° 0.1 mm 2 m/S 727 mmHg 55%
    21:00 +13°C° 0.1 mm 2 m/S 727 mmHg 59%
    22:00 +13°C° 0.1 mm 2 m/S 727 mmHg 63%
    23:00 +12°C° 0.2 mm 2 m/S 727 mmHg 67%

    Morgen, 23 September, Sonntag

    Zeit Temperatur Niederschläge Wind Luftdruck Luftfeuchtigkeit
    00:00 +12°C° 0.2 mm 2 m/S 727 mmHg 72%
    01:00 +12°C° 0.2 mm 1 m/S 726 mmHg 77%
    02:00 +12°C° 0.4 mm 2 m/S 726 mmHg 80%
    03:00 +10°C° 0.4 mm 2 m/S 725 mmHg 83%
    04:00 +10°C° 0.4 mm 2 m/S 724 mmHg 86%
    05:00 +11°C° 0.6 mm 3 m/S 724 mmHg 86%
    06:00 +11°C° 0.6 mm 3 m/S 724 mmHg 87%
    07:00 +12°C° 0.6 mm 3 m/S 723 mmHg 87%
    08:00 +13°C° 0.7 mm 4 m/S 723 mmHg 87%
    09:00 +14°C° 0.7 mm 5 m/S 723 mmHg 86%
    10:00 +16°C° 0.7 mm 6 m/S 723 mmHg 86%
    11:00 +17°C° 0.2 mm 7 m/S 723 mmHg 83%
    12:00 +18°C° 0.2 mm 8 m/S 722 mmHg 79%
    13:00 +21°C° 0.2 mm 8 m/S 722 mmHg 76%
    14:00 +21°C° 0 mm 8 m/S 721 mmHg 74%
    15:00 +21°C° 0 mm 7 m/S 720 mmHg 72%
    16:00 +22°C° 0 mm 7 m/S 719 mmHg 70%
    17:00 +21°C° 0.3 mm 8 m/S 718 mmHg 70%
    18:00 +21°C° 0.3 mm 8 m/S 717 mmHg 70%
    19:00 +21°C° 0.3 mm 9 m/S 716 mmHg 71%
    20:00 +17°C° 5.1 mm 9 m/S 718 mmHg 76%
    21:00 +15°C° 5.1 mm 9 m/S 719 mmHg 82%
    22:00 +11°C° 5.1 mm 9 m/S 720 mmHg 88%
    23:00 +10°C° 0.2 mm 9 m/S 722 mmHg 87%

    übermorgen, 24 September, Montag

    Zeit Temperatur Niederschläge Wind Luftdruck Luftfeuchtigkeit
    00:00 +9°C° 0.2 mm 8 m/S 724 mmHg 87%
    01:00 +6°C° 0.2 mm 7 m/S 727 mmHg 86%
    02:00 +7°C° 0 mm 6 m/S 728 mmHg 87%
    03:00 +6°C° 0 mm 5 m/S 730 mmHg 88%
    04:00 +6°C° 0 mm 4 m/S 731 mmHg 89%
    05:00 +6°C° 0 mm 4 m/S 732 mmHg 90%
    06:00 +6°C° 0 mm 4 m/S 733 mmHg 91%
    07:00 +5°C° 0 mm 4 m/S 733 mmHg 92%
    08:00 +7°C° 0 mm 4 m/S 734 mmHg 84%
    09:00 +8°C° 0 mm 4 m/S 735 mmHg 76%
    10:00 +10°C° 0 mm 4 m/S 735 mmHg 69%
    11:00 +11°C° 0 mm 4 m/S 735 mmHg 62%
    12:00 +12°C° 0 mm 4 m/S 735 mmHg 55%
    13:00 +13°C° 0 mm 4 m/S 735 mmHg 48%
    14:00 +13°C° 0 mm 4 m/S 735 mmHg 47%
    15:00 +13°C° 0 mm 4 m/S 735 mmHg 47%
    16:00 +13°C° 0 mm 3 m/S 735 mmHg 47%
    17:00 +11°C° 0 mm 3 m/S 736 mmHg 53%
    18:00 +10°C° 0 mm 2 m/S 736 mmHg 59%
    19:00 +9°C° 0 mm 1 m/S 736 mmHg 66%
    20:00 +8°C° 0 mm 1 m/S 736 mmHg 69%
    21:00 +8°C° 0 mm 1 m/S 737 mmHg 73%
    22:00 +7°C° 0 mm 1 m/S 737 mmHg 77%
    23:00 +7°C° 0 mm 1 m/S 737 mmHg 81%

    25 September, Dienstag

    Zeit Temperatur Niederschläge Wind Luftdruck Luftfeuchtigkeit
    00:00 +6°C° 0 mm 1 m/S 737 mmHg 84%
    01:00 +6°C° 0 mm 1 m/S 738 mmHg 88%
    02:00 +5°C° 0 mm 1 m/S 738 mmHg 89%
    03:00 +5°C° 0 mm 1 m/S 738 mmHg 90%
    04:00 +5°C° 0 mm 1 m/S 738 mmHg 92%
    05:00 +5°C° 0 mm 1 m/S 738 mmHg 90%
    06:00 +5°C° 0 mm 1 m/S 738 mmHg 89%
    07:00 +5°C° 0 mm 1 m/S 738 mmHg 88%
    08:00 +6°C° 0 mm 2 m/S 739 mmHg 77%
    09:00 +8°C° 0 mm 3 m/S 739 mmHg 67%
    10:00 +10°C° 0 mm 3 m/S 739 mmHg 56%
    11:00 +11°C° 0 mm 3 m/S 739 mmHg 52%
    12:00 +12°C° 0 mm 3 m/S 738 mmHg 47%
    13:00 +13°C° 0 mm 3 m/S 738 mmHg 43%
    14:00 +13°C° 0 mm 3 m/S 737 mmHg 44%
    15:00 +13°C° 0 mm 3 m/S 737 mmHg 44%
    16:00 +13°C° 0 mm 3 m/S 736 mmHg 44%
    17:00 +11°C° 0 mm 3 m/S 736 mmHg 49%
    18:00 +9°C° 0 mm 2 m/S 736 mmHg 55%
    19:00 +7°C° 0 mm 2 m/S 736 mmHg 60%
    20:00 +6°C° 0 mm 2 m/S 736 mmHg 61%
    21:00 +6°C° 0 mm 2 m/S 736 mmHg 62%
    22:00 +5°C° 0 mm 2 m/S 736 mmHg 63%
    23:00 +5°C° 0 mm 2 m/S 736 mmHg 64%

    26 September, Mittwoch

    Zeit Temperatur Niederschläge Wind Luftdruck Luftfeuchtigkeit
    00:00 +4°C° 0 mm 2 m/S 736 mmHg 65%
    01:00 +4°C° 0 mm 2 m/S 736 mmHg 66%
    02:00 +4°C° 0 mm 2 m/S 736 mmHg 67%
    03:00 +3°C° 0 mm 2 m/S 736 mmHg 69%
    04:00 +4°C° 0 mm 1 m/S 735 mmHg 70%
    05:00 +4°C° 0 mm 1 m/S 736 mmHg 70%
    06:00 +4°C° 0 mm 1 m/S 736 mmHg 71%
    07:00 +4°C° 0 mm 1 m/S 736 mmHg 72%
    08:00 +6°C° 0 mm 2 m/S 736 mmHg 64%
    09:00 +8°C° 0 mm 2 m/S 736 mmHg 56%
    10:00 +12°C° 0 mm 2 m/S 736 mmHg 49%
    11:00 +13°C° 0 mm 2 m/S 736 mmHg 45%
    12:00 +15°C° 0 mm 2 m/S 735 mmHg 42%
    13:00 +16°C° 0 mm 2 m/S 735 mmHg 38%
    14:00 +17°C° 0 mm 2 m/S 735 mmHg 40%
    15:00 +17°C° 0 mm 2 m/S 734 mmHg 41%
    16:00 +17°C° 0 mm 2 m/S 734 mmHg 43%
    17:00 +15°C° 0 mm 2 m/S 734 mmHg 50%
    18:00 +13°C° 0 mm 1 m/S 734 mmHg 57%
    19:00 +10°C° 0 mm 1 m/S 733 mmHg 64%
    20:00 +10°C° 0 mm 1 m/S 733 mmHg 66%
    21:00 +9°C° 0 mm 1 m/S 733 mmHg 69%
    22:00 +8°C° 0 mm 1 m/S 733 mmHg 72%
    23:00 +8°C° 0 mm 1 m/S 733 mmHg 74%

    27 September, Donnerstag

    Zeit Temperatur Niederschläge Wind Luftdruck Luftfeuchtigkeit
    00:00 +8°C° 0 mm 1 m/S 733 mmHg 75%
    01:00 +7°C° 0 mm 1 m/S 732 mmHg 77%
    02:00 +7°C° 0 mm 1 m/S 732 mmHg 78%
    03:00 +7°C° 0 mm 1 m/S 732 mmHg 79%
    04:00 +7°C° 0 mm 1 m/S 732 mmHg 80%
    05:00 +7°C° 0 mm 1 m/S 732 mmHg 81%
    06:00 +7°C° 0 mm 1 m/S 731 mmHg 81%
    07:00 +8°C° 0 mm 1 m/S 731 mmHg 81%
    08:00 +9°C° 0 mm 2 m/S 731 mmHg 71%
    09:00 +13°C° 0 mm 2 m/S 731 mmHg 62%
    10:00 +16°C° 0 mm 2 m/S 731 mmHg 52%
    11:00 +17°C° 0 mm 2 m/S 731 mmHg 48%
    12:00 +19°C° 0 mm 3 m/S 731 mmHg 44%
    13:00 +20°C° 0 mm 3 m/S 731 mmHg 40%
    14:00 +20°C° 0 mm 3 m/S 731 mmHg 42%
    15:00 +20°C° 0 mm 3 m/S 730 mmHg 44%
    16:00 +20°C° 0 mm 3 m/S 730 mmHg 46%
    17:00 +18°C° 0 mm 3 m/S 730 mmHg 53%
    18:00 +15°C° 0 mm 2 m/S 730 mmHg 60%
    19:00 +13°C° 0 mm 2 m/S 730 mmHg 66%
    20:00 +12°C° 0 mm 1 m/S 730 mmHg 69%
    21:00 +12°C° 0 mm 1 m/S 730 mmHg 72%
    22:00 +11°C° 0 mm 1 m/S 731 mmHg 75%
    23:00 +10°C° 0 mm 1 m/S 730 mmHg 77%
    Mehr zeigen